When you browse on this site, cookies collect data to enhance your experience and personalize the content and advertising you see.
Visit our Privacy Policy to learn more. By continuing to use the site, you agree to this use of cookies and data.
  • In Romania
  • List of Countries
  • For 7 days
  • Water Temperature
  • Weather Map
  • Weather Widgets
  • user-avatar
    Login

    Hourly Weather Connaught

    Today, 28 February, Friday

    Time Temperature Precipitation Wind Pressure Humidity
    00:00 +1°C° 0.1 mm 4 mps 738 mmHg 89%
    01:00 +1°C° 0.1 mm 5 mps 736 mmHg 92%
    02:00 +1°C° 0.1 mm 5 mps 735 mmHg 94%
    03:00 +1°C° 1 mm 5 mps 734 mmHg 95%
    04:00 +1°C° 1 mm 5 mps 732 mmHg 96%
    05:00 +2°C° 0 mm 5 mps 731 mmHg 97%
    06:00 +3°C° 0.9 mm 5 mps 729 mmHg 98%
    07:00 +5°C° 0.9 mm 5 mps 728 mmHg 98%
    08:00 +6°C° 0.9 mm 5 mps 726 mmHg 98%
    09:00 +6°C° 0.5 mm 5 mps 726 mmHg 96%
    10:00 +7°C° 0.5 mm 6 mps 725 mmHg 94%
    11:00 +8°C° 0.5 mm 6 mps 724 mmHg 93%
    12:00 +8°C° 0.1 mm 6 mps 724 mmHg 91%
    13:00 +8°C° 0.1 mm 7 mps 724 mmHg 89%
    14:00 +8°C° 0.1 mm 7 mps 724 mmHg 86%
    15:00 +7°C° 0 mm 5 mps 723 mmHg 89%
    16:00 +6°C° 0 mm 4 mps 722 mmHg 91%
    17:00 +7°C° 0 mm 3 mps 721 mmHg 94%
    18:00 +6°C° 0.6 mm 4 mps 720 mmHg 95%
    19:00 +6°C° 0.6 mm 4 mps 719 mmHg 95%
    20:00 +7°C° 0.6 mm 5 mps 718 mmHg 96%
    21:00 +6°C° 1.7 mm 5 mps 717 mmHg 94%
    22:00 +3°C° 1.7 mm 6 mps 717 mmHg 92%
    23:00 +2°C° 1.7 mm 6 mps 716 mmHg 91%

    Tomorrow, 29 February, Saturday

    Time Temperature Precipitation Wind Pressure Humidity
    00:00 +1°C° 0.1 mm 6 mps 716 mmHg 88%
    01:00 -1°C° 0.1 mm 6 mps 716 mmHg 85%
    02:00 -1°C° 0.1 mm 5 mps 716 mmHg 82%
    03:00 -1°C° 0 mm 5 mps 715 mmHg 81%
    04:00 -3°C° 0 mm 6 mps 715 mmHg 81%
    05:00 -3°C° 0 mm 6 mps 714 mmHg 81%
    06:00 -4°C° 0.4 mm 8 mps 712 mmHg 85%
    07:00 -3°C° 0.4 mm 10 mps 710 mmHg 89%
    08:00 -4°C° 0.4 mm 13 mps 709 mmHg 93%
    09:00 -2°C° 1.4 mm 13 mps 708 mmHg 92%
    10:00 -2°C° 1.4 mm 14 mps 707 mmHg 90%
    11:00 -1°C° 1.4 mm 14 mps 707 mmHg 89%
    12:00 -1°C° 1.3 mm 15 mps 708 mmHg 89%
    13:00 -2°C° 1.3 mm 16 mps 708 mmHg 88%
    14:00 -3°C° 1.3 mm 16 mps 709 mmHg 88%
    15:00 -3°C° 0.9 mm 15 mps 710 mmHg 85%
    16:00 -2°C° 0.9 mm 14 mps 711 mmHg 82%
    17:00 -1°C° 0.9 mm 12 mps 712 mmHg 80%
    18:00 -2°C° 0 mm 11 mps 713 mmHg 78%
    19:00 -2°C° 0 mm 10 mps 714 mmHg 77%
    20:00 -1°C° 0 mm 9 mps 714 mmHg 76%
    21:00 -1°C° 0 mm 9 mps 715 mmHg 76%
    22:00 -1°C° 0 mm 9 mps 715 mmHg 76%
    23:00 -2°C° 0 mm 10 mps 716 mmHg 77%

    Day after tomorrow, 1 March, Sunday

    Time Temperature Precipitation Wind Pressure Humidity
    00:00 -1°C° 0 mm 9 mps 716 mmHg 75%
    01:00 -1°C° 0 mm 8 mps 716 mmHg 74%
    02:00 -1°C° 0 mm 8 mps 716 mmHg 72%
    03:00 -1°C° 0 mm 8 mps 716 mmHg 74%
    04:00 -1°C° 0 mm 8 mps 716 mmHg 75%
    05:00 -1°C° 0 mm 7 mps 716 mmHg 76%
    06:00 -1°C° 0 mm 7 mps 716 mmHg 75%
    07:00 -1°C° 0 mm 7 mps 717 mmHg 74%
    08:00 0°C° 0 mm 8 mps 717 mmHg 73%
    09:00 +1°C° 0.1 mm 8 mps 717 mmHg 70%
    10:00 +1°C° 0.1 mm 9 mps 718 mmHg 67%
    11:00 +2°C° 0.1 mm 10 mps 718 mmHg 65%
    12:00 +2°C° 0.2 mm 10 mps 718 mmHg 66%
    13:00 +2°C° 0.2 mm 10 mps 719 mmHg 68%
    14:00 +2°C° 0.2 mm 9 mps 719 mmHg 69%
    15:00 +1°C° 0.2 mm 9 mps 719 mmHg 72%
    16:00 0°C° 0.2 mm 8 mps 719 mmHg 76%
    17:00 0°C° 0.2 mm 7 mps 719 mmHg 79%
    18:00 -1°C° 0 mm 7 mps 719 mmHg 80%
    19:00 -1°C° 0 mm 7 mps 719 mmHg 81%
    20:00 -1°C° 0 mm 7 mps 720 mmHg 82%
    21:00 -1°C° 0 mm 6 mps 720 mmHg 82%
    22:00 -1°C° 0 mm 6 mps 721 mmHg 82%
    23:00 -1°C° 0 mm 6 mps 721 mmHg 81%

    2 March, Monday

    Time Temperature Precipitation Wind Pressure Humidity
    00:00 -1°C° 0 mm 6 mps 721 mmHg 81%
    01:00 0°C° 0 mm 5 mps 721 mmHg 81%
    02:00 -1°C° 0 mm 5 mps 722 mmHg 81%
    03:00 -1°C° 0 mm 5 mps 722 mmHg 81%
    04:00 -1°C° 0 mm 5 mps 722 mmHg 81%
    05:00 -1°C° 0 mm 5 mps 722 mmHg 81%
    06:00 -1°C° 0 mm 5 mps 723 mmHg 79%
    07:00 -1°C° 0 mm 6 mps 724 mmHg 77%
    08:00 +1°C° 0 mm 6 mps 724 mmHg 76%
    09:00 0°C° 0.1 mm 7 mps 725 mmHg 71%
    10:00 +1°C° 0.1 mm 8 mps 726 mmHg 67%
    11:00 +2°C° 0.1 mm 8 mps 726 mmHg 62%
    12:00 +2°C° 0.1 mm 8 mps 727 mmHg 63%
    13:00 +2°C° 0.1 mm 8 mps 727 mmHg 64%
    14:00 +1°C° 0.1 mm 8 mps 728 mmHg 64%
    15:00 +2°C° 0.1 mm 7 mps 728 mmHg 69%
    16:00 +1°C° 0.1 mm 6 mps 729 mmHg 73%
    17:00 0°C° 0.1 mm 5 mps 729 mmHg 77%
    18:00 0°C° 0.1 mm 5 mps 730 mmHg 78%
    19:00 -1°C° 0.1 mm 5 mps 731 mmHg 79%
    20:00 -1°C° 0.1 mm 5 mps 731 mmHg 80%
    21:00 -1°C° 0 mm 5 mps 732 mmHg 80%
    22:00 -1°C° 0 mm 5 mps 733 mmHg 80%
    23:00 -1°C° 0 mm 5 mps 733 mmHg 80%

    3 March, Tuesday

    Time Temperature Precipitation Wind Pressure Humidity
    00:00 -1°C° 0 mm 5 mps 733 mmHg 80%
    01:00 -1°C° 0 mm 4 mps 734 mmHg 80%
    02:00 -2°C° 0 mm 4 mps 734 mmHg 81%
    03:00 -2°C° 0.1 mm 4 mps 734 mmHg 81%
    04:00 -1°C° 0.1 mm 4 mps 735 mmHg 81%
    05:00 0°C° 0.1 mm 3 mps 735 mmHg 82%
    06:00 0°C° 0.1 mm 3 mps 735 mmHg 81%
    07:00 +1°C° 0.1 mm 3 mps 736 mmHg 81%
    08:00 +1°C° 0.1 mm 3 mps 736 mmHg 80%
    09:00 +2°C° 0.1 mm 3 mps 736 mmHg 76%
    10:00 +3°C° 0.1 mm 4 mps 736 mmHg 72%
    11:00 +4°C° 0.1 mm 4 mps 737 mmHg 67%
    12:00 +4°C° 0.1 mm 4 mps 737 mmHg 67%
    13:00 +5°C° 0.1 mm 4 mps 737 mmHg 66%
    14:00 +5°C° 0.1 mm 3 mps 736 mmHg 66%
    15:00 +4°C° 0.1 mm 2 mps 736 mmHg 71%
    16:00 +4°C° 0.1 mm 1 mps 736 mmHg 75%
    17:00 +3°C° 0.1 mm 1 mps 736 mmHg 80%
    18:00 +2°C° 0 mm 1 mps 736 mmHg 82%
    19:00 +2°C° 0 mm 1 mps 736 mmHg 84%
    20:00 +1°C° 0 mm 1 mps 736 mmHg 86%
    21:00 +1°C° 0 mm 1 mps 736 mmHg 87%
    22:00 +1°C° 0 mm 1 mps 736 mmHg 88%
    23:00 -2°C° 0 mm 2 mps 736 mmHg 90%

    4 March, Wednesday

    Time Temperature Precipitation Wind Pressure Humidity
    00:00 -2°C° 0 mm 2 mps 736 mmHg 90%
    01:00 -2°C° 0 mm 2 mps 735 mmHg 91%
    02:00 -2°C° 0 mm 3 mps 735 mmHg 91%
    03:00 -2°C° 0 mm 2 mps 735 mmHg 91%
    04:00 -1°C° 0 mm 2 mps 734 mmHg 91%
    05:00 -1°C° 0 mm 2 mps 734 mmHg 90%
    06:00 -1°C° 0 mm 3 mps 734 mmHg 88%
    07:00 0°C° 0 mm 3 mps 735 mmHg 86%
    08:00 +1°C° 0 mm 3 mps 735 mmHg 84%
    09:00 +2°C° 0 mm 3 mps 735 mmHg 80%
    10:00 +3°C° 0 mm 3 mps 736 mmHg 76%
    11:00 +4°C° 0 mm 3 mps 736 mmHg 73%
    12:00 +5°C° 0.1 mm 4 mps 736 mmHg 71%
    13:00 +5°C° 0.1 mm 4 mps 737 mmHg 70%
    14:00 +5°C° 0.1 mm 4 mps 737 mmHg 69%
    15:00 +4°C° 0.1 mm 3 mps 738 mmHg 74%
    16:00 +3°C° 0.1 mm 3 mps 739 mmHg 78%
    17:00 +2°C° 0.1 mm 3 mps 739 mmHg 83%
    18:00 +1°C° 0 mm 3 mps 740 mmHg 85%
    19:00 0°C° 0 mm 3 mps 741 mmHg 87%
    20:00 -1°C° 0 mm 2 mps 741 mmHg 89%
    21:00 -1°C° 0.1 mm 2 mps 742 mmHg 90%
    22:00 -1°C° 0.1 mm 2 mps 742 mmHg 91%
    23:00 -1°C° 0.1 mm 2 mps 743 mmHg 91%
    Show more